Time,TemperatureF,DewpointF,PressureIn,WindDirection,WindDirectionDegrees,WindSpeedMPH,WindSpeedGustMPH,Humidity,HourlyPrecipIn,Conditions,Clouds,dailyrainin,SoftwareType,DateUTC
2013-08-31 00:01:00,67.7,66.0,29.96,SE,127,0.0,0.0,93,0.00,,,0.00,weatherlink.com 1.10,2013-08-31 04:01:00,
2013-08-31 00:16:00,67.4,65.0,29.96,SE,127,0.0,0.0,93,0.00,,,0.00,weatherlink.com 1.10,2013-08-31 04:16:00,
2013-08-31 00:31:00,67.2,66.0,29.96,SE,127,0.0,0.0,94,0.00,,,0.00,weatherlink.com 1.10,2013-08-31 04:31:00,
2013-08-31 00:46:00,66.8,65.0,29.96,ESE,122,0.0,0.0,94,0.00,,,0.00,weatherlink.com 1.10,2013-08-31 04:46:00,
2013-08-31 01:01:00,66.8,65.0,29.96,ESE,122,0.0,0.0,95,0.00,,,0.00,weatherlink.com 1.10,2013-08-31 05:01:00,
2013-08-31 01:16:00,66.9,66.0,29.96,ESE,122,0.0,0.0,95,0.00,,,0.00,weatherlink.com 1.10,2013-08-31 05:16:00,
2013-08-31 01:31:00,67.1,66.0,29.96,ESE,122,0.0,0.0,95,0.00,,,0.00,weatherlink.com 1.10,2013-08-31 05:31:00,
2013-08-31 01:46:00,66.7,65.0,29.96,NNE,21,0.0,1.0,94,0.00,,,0.00,weatherlink.com 1.10,2013-08-31 05:46:00,
2013-08-31 02:01:00,66.8,65.0,29.95,NNE,21,0.0,0.0,95,0.00,,,0.00,weatherlink.com 1.10,2013-08-31 06:01:00,
2013-08-31 02:16:00,66.6,65.0,29.95,NNE,21,0.0,0.0,95,0.00,,,0.00,weatherlink.com 1.10,2013-08-31 06:16:00,
2013-08-31 02:31:00,66.7,66.0,29.95,NNE,22,0.0,0.0,96,0.00,,,0.00,weatherlink.com 1.10,2013-08-31 06:31:00,
2013-08-31 02:46:00,66.7,65.0,29.95,NNE,21,0.0,0.0,95,0.00,,,0.00,weatherlink.com 1.10,2013-08-31 06:46:00,
2013-08-31 03:01:00,66.0,65.0,29.96,NNE,22,0.0,0.0,95,0.00,,,0.00,weatherlink.com 1.10,2013-08-31 07:01:00,
2013-08-31 03:16:00,65.6,64.0,29.96,NNE,22,0.0,0.0,95,0.00,,,0.00,weatherlink.com 1.10,2013-08-31 07:16:00,
2013-08-31 03:31:00,65.5,64.0,29.95,NNE,21,0.0,0.0,96,0.00,,,0.00,weatherlink.com 1.10,2013-08-31 07:31:00,
2013-08-31 03:46:00,64.9,64.0,29.95,NNE,21,0.0,0.0,96,0.00,,,0.00,weatherlink.com 1.10,2013-08-31 07:46:00,
2013-08-31 04:01:00,64.9,64.0,29.95,NNE,22,0.0,0.0,96,0.00,,,0.00,weatherlink.com 1.10,2013-08-31 08:01:00,
2013-08-31 04:16:00,64.9,64.0,29.95,NNE,21,0.0,0.0,96,0.00,,,0.00,weatherlink.com 1.10,2013-08-31 08:16:00,
2013-08-31 04:32:00,64.6,64.0,29.95,NNE,22,0.0,0.0,96,0.00,,,0.00,weatherlink.com 1.10,2013-08-31 08:32:00,
2013-08-31 04:46:00,64.7,64.0,29.95,NNE,22,0.0,0.0,97,0.00,,,0.00,weatherlink.com 1.10,2013-08-31 08:46:00,
2013-08-31 05:02:00,64.9,64.0,29.95,NNE,22,0.0,0.0,97,0.00,,,0.00,weatherlink.com 1.10,2013-08-31 09:02:00,
2013-08-31 05:17:00,65.0,64.0,29.95,NNE,22,0.0,0.0,97,0.00,,,0.00,weatherlink.com 1.10,2013-08-31 09:17:00,
2013-08-31 05:32:00,65.1,64.0,29.95,NNE,21,0.0,0.0,97,0.00,,,0.00,weatherlink.com 1.10,2013-08-31 09:32:00,
2013-08-31 05:47:00,64.7,64.0,29.95,NNE,22,0.0,0.0,97,0.00,,,0.00,weatherlink.com 1.10,2013-08-31 09:47:00,
2013-08-31 06:02:00,64.3,64.0,29.95,NNE,21,0.0,0.0,97,0.00,,,0.00,weatherlink.com 1.10,2013-08-31 10:02:00,
2013-08-31 06:17:00,64.2,63.0,29.95,NNE,22,0.0,0.0,97,0.00,,,0.00,weatherlink.com 1.10,2013-08-31 10:17:00,
2013-08-31 06:32:00,63.9,63.0,29.95,NNE,22,0.0,0.0,97,0.00,,,0.00,weatherlink.com 1.10,2013-08-31 10:32:00,
2013-08-31 06:47:00,63.8,63.0,29.95,NNE,21,0.0,0.0,97,0.00,,,0.00,weatherlink.com 1.10,2013-08-31 10:47:00,
2013-08-31 07:02:00,64.4,64.0,29.96,NNE,21,0.0,0.0,97,0.00,,,0.00,weatherlink.com 1.10,2013-08-31 11:02:00,
2013-08-31 07:17:00,64.6,64.0,29.96,NNE,22,0.0,0.0,97,0.00,,,0.00,weatherlink.com 1.10,2013-08-31 11:17:00,
2013-08-31 07:32:00,65.2,64.0,29.96,NNE,21,0.0,0.0,97,0.00,,,0.00,weatherlink.com 1.10,2013-08-31 11:32:00,
2013-08-31 07:47:00,66.4,66.0,29.97,NNE,21,0.0,1.0,97,0.00,,,0.00,weatherlink.com 1.10,2013-08-31 11:47:00,
2013-08-31 08:02:00,66.8,66.0,29.97,NNE,21,0.0,0.0,97,0.00,,,0.00,weatherlink.com 1.10,2013-08-31 12:02:00,
2013-08-31 08:17:00,68.1,67.0,29.97,North,5,0.0,1.0,97,0.00,,,0.00,weatherlink.com 1.10,2013-08-31 12:17:00,
2013-08-31 08:32:00,69.4,69.0,29.97,NW,323,0.0,1.0,97,0.00,,,0.00,weatherlink.com 1.10,2013-08-31 12:32:00,
2013-08-31 08:47:00,70.0,69.0,29.96,WNW,283,0.0,1.0,97,0.00,,,0.00,weatherlink.com 1.10,2013-08-31 12:47:00,
2013-08-31 09:02:00,70.7,70.0,29.96,West,262,0.0,2.0,96,0.00,,,0.00,weatherlink.com 1.10,2013-08-31 13:02:00,
2013-08-31 09:17:00,71.2,70.0,29.96,South,188,0.0,4.0,95,0.00,,,0.00,weatherlink.com 1.10,2013-08-31 13:17:00,
2013-08-31 09:32:00,72.2,71.0,29.97,WSW,240,0.0,3.0,95,0.00,,,0.00,weatherlink.com 1.10,2013-08-31 13:32:00,
2013-08-31 09:47:00,73.2,71.0,29.98,South,169,1.0,2.0,94,0.00,,,0.00,weatherlink.com 1.10,2013-08-31 13:47:00,
2013-08-31 10:02:00,74.4,72.0,29.97,NNW,342,1.0,4.0,92,0.00,,,0.00,weatherlink.com 1.10,2013-08-31 14:02:00,
2013-08-31 10:17:00,75.5,73.0,29.98,West,263,4.0,4.0,90,0.00,,,0.00,weatherlink.com 1.10,2013-08-31 14:17:00,
2013-08-31 10:32:00,76.7,73.0,29.98,West,269,2.0,5.0,87,0.00,,,0.00,weatherlink.com 1.10,2013-08-31 14:32:00,
2013-08-31 10:47:00,77.8,73.0,29.98,SSE,154,1.0,3.0,86,0.00,,,0.00,weatherlink.com 1.10,2013-08-31 14:47:00,
2013-08-31 11:02:00,78.5,74.0,29.98,SSE,155,2.0,3.0,86,0.00,,,0.00,weatherlink.com 1.10,2013-08-31 15:02:00,
2013-08-31 11:17:00,79.5,74.0,29.98,WNW,284,0.0,4.0,84,0.00,,,0.00,weatherlink.com 1.10,2013-08-31 15:17:00,
2013-08-31 11:33:00,81.1,74.0,29.98,West,262,2.0,4.0,79,0.00,,,0.00,weatherlink.com 1.10,2013-08-31 15:33:00,
2013-08-31 11:48:00,81.6,75.0,29.97,SW,219,1.0,3.0,79,0.00,,,0.00,weatherlink.com 1.10,2013-08-31 15:48:00,
2013-08-31 12:03:00,81.6,74.0,29.97,South,173,1.0,2.0,77,0.00,,,0.00,weatherlink.com 1.10,2013-08-31 16:03:00,
2013-08-31 12:18:00,82.4,74.0,29.96,SE,127,0.0,2.0,75,0.00,,,0.00,weatherlink.com 1.10,2013-08-31 16:18:00,
2013-08-31 12:33:00,83.7,75.0,29.95,WSW,240,1.0,4.0,74,0.00,,,0.00,weatherlink.com 1.10,2013-08-31 16:33:00,
2013-08-31 12:48:00,84.5,75.0,29.95,West,271,1.0,4.0,73,0.00,,,0.00,weatherlink.com 1.10,2013-08-31 16:48:00,
2013-08-31 13:03:00,85.0,74.0,29.94,NNE,33,1.0,5.0,70,0.00,,,0.00,weatherlink.com 1.10,2013-08-31 17:03:00,
2013-08-31 13:18:00,85.3,74.0,29.94,South,174,0.0,6.0,68,0.00,,,0.00,weatherlink.com 1.10,2013-08-31 17:18:00,
2013-08-31 13:33:00,85.9,74.0,29.94,SW,228,1.0,4.0,67,0.00,,,0.00,weatherlink.com 1.10,2013-08-31 17:33:00,
2013-08-31 13:48:00,86.5,73.0,29.94,SSE,150,0.0,2.0,65,0.00,,,0.00,weatherlink.com 1.10,2013-08-31 17:48:00,
2013-08-31 14:03:00,87.6,74.0,29.93,WSW,240,1.0,3.0,64,0.00,,,0.00,weatherlink.com 1.10,2013-08-31 18:03:00,
2013-08-31 14:18:00,88.0,73.0,29.93,ESE,110,1.0,3.0,62,0.00,,,0.00,weatherlink.com 1.10,2013-08-31 18:18:00,
2013-08-31 14:33:00,88.2,74.0,29.92,NNE,25,0.0,3.0,62,0.00,,,0.00,weatherlink.com 1.10,2013-08-31 18:33:00,
2013-08-31 14:48:00,87.7,73.0,29.91,SE,146,0.0,3.0,61,0.00,,,0.00,weatherlink.com 1.10,2013-08-31 18:48:00,
2013-08-31 15:03:00,88.6,73.0,29.90,WSW,242,2.0,3.0,60,0.00,,,0.00,weatherlink.com 1.10,2013-08-31 19:03:00,
2013-08-31 15:18:00,88.6,73.0,29.90,SSE,168,1.0,2.0,60,0.00,,,0.00,weatherlink.com 1.10,2013-08-31 19:18:00,
2013-08-31 15:33:00,88.7,73.0,29.89,West,260,4.0,5.0,59,0.00,,,0.00,weatherlink.com 1.10,2013-08-31 19:33:00,
2013-08-31 15:48:00,88.7,73.0,29.88,East,101,2.0,3.0,59,0.00,,,0.00,weatherlink.com 1.10,2013-08-31 19:48:00,
2013-08-31 16:03:00,88.7,72.0,29.88,SW,221,1.0,2.0,58,0.00,,,0.00,weatherlink.com 1.10,2013-08-31 20:03:00,
2013-08-31 16:18:00,89.3,74.0,29.88,WSW,248,0.0,2.0,60,0.00,,,0.00,weatherlink.com 1.10,2013-08-31 20:18:00,
2013-08-31 16:33:00,90.0,74.0,29.88,SE,127,1.0,3.0,60,0.00,,,0.00,weatherlink.com 1.10,2013-08-31 20:33:00,
2013-08-31 16:48:00,89.9,73.0,29.88,SSE,161,1.0,4.0,58,0.00,,,0.00,weatherlink.com 1.10,2013-08-31 20:48:00,
2013-08-31 17:03:00,89.7,73.0,29.87,SE,142,1.0,2.0,58,0.00,,,0.00,weatherlink.com 1.10,2013-08-31 21:03:00,
2013-08-31 17:18:00,88.9,73.0,29.87,South,180,0.0,2.0,59,0.00,,,0.00,weatherlink.com 1.10,2013-08-31 21:18:00,
2013-08-31 17:33:00,89.1,74.0,29.87,SSW,203,0.0,2.0,61,0.00,,,0.00,weatherlink.com 1.10,2013-08-31 21:33:00,
2013-08-31 17:49:00,87.7,73.0,29.87,West,260,1.0,1.0,62,0.00,,,0.00,weatherlink.com 1.10,2013-08-31 21:49:00,
2013-08-31 18:04:00,85.4,74.0,29.88,SE,142,0.0,1.0,68,0.00,,,0.00,weatherlink.com 1.10,2013-08-31 22:04:00,
2013-08-31 18:19:00,83.1,74.0,29.88,SE,142,0.0,0.0,73,0.00,,,0.00,weatherlink.com 1.10,2013-08-31 22:19:00,
2013-08-31 18:34:00,82.2,74.0,29.88,SE,143,0.0,0.0,75,0.00,,,0.00,weatherlink.com 1.10,2013-08-31 22:34:00,
2013-08-31 18:49:00,81.5,74.0,29.88,SE,143,0.0,0.0,79,0.00,,,0.00,weatherlink.com 1.10,2013-08-31 22:49:00,
2013-08-31 19:04:00,80.5,74.0,29.87,SE,142,0.0,0.0,80,0.00,,,0.00,weatherlink.com 1.10,2013-08-31 23:04:00,
2013-08-31 19:19:00,79.4,73.0,29.87,SE,142,0.0,0.0,81,0.00,,,0.00,weatherlink.com 1.10,2013-08-31 23:19:00,
2013-08-31 19:34:00,78.6,73.0,29.86,SE,142,0.0,0.0,84,0.00,,,0.00,weatherlink.com 1.10,2013-08-31 23:34:00,
2013-08-31 19:49:00,78.0,73.0,29.86,SE,142,0.0,1.0,85,0.00,,,0.00,weatherlink.com 1.10,2013-08-31 23:49:00,
2013-08-31 20:04:00,77.2,73.0,29.86,SE,142,0.0,0.0,86,0.00,,,0.00,weatherlink.com 1.10,2013-09-01 00:04:00,
2013-08-31 20:18:00,76.8,73.0,29.88,SE,142,0.0,0.0,87,0.00,,,0.00,weatherlink.com 1.10,2013-09-01 00:18:00,
2013-08-31 20:33:00,76.2,73.0,29.89,SE,143,0.0,0.0,88,0.00,,,0.00,weatherlink.com 1.10,2013-09-01 00:33:00,
2013-08-31 20:48:00,75.9,73.0,29.89,SE,143,0.0,0.0,89,0.00,,,0.00,weatherlink.com 1.10,2013-09-01 00:48:00,
2013-08-31 21:03:00,75.4,72.0,29.89,SE,142,0.0,0.0,90,0.00,,,0.00,weatherlink.com 1.10,2013-09-01 01:03:00,
2013-08-31 21:18:00,74.8,72.0,29.89,SE,143,0.0,0.0,91,0.00,,,0.00,weatherlink.com 1.10,2013-09-01 01:18:00,
2013-08-31 21:33:00,74.3,72.0,29.90,SE,142,0.0,1.0,92,0.00,,,0.00,weatherlink.com 1.10,2013-09-01 01:33:00,
2013-08-31 21:49:00,74.2,72.0,29.90,SE,143,0.0,0.0,93,0.00,,,0.00,weatherlink.com 1.10,2013-09-01 01:49:00,
2013-08-31 22:04:00,74.0,72.0,29.90,SE,142,0.0,0.0,92,0.00,,,0.00,weatherlink.com 1.10,2013-09-01 02:04:00,
2013-08-31 22:19:00,73.9,72.0,29.91,SE,142,0.0,0.0,93,0.00,,,0.00,weatherlink.com 1.10,2013-09-01 02:19:00,
2013-08-31 22:34:00,73.5,72.0,29.91,North,350,0.0,2.0,94,0.00,,,0.00,weatherlink.com 1.10,2013-09-01 02:34:00,
2013-08-31 22:49:00,73.4,71.0,29.91,North,350,0.0,1.0,93,0.00,,,0.00,weatherlink.com 1.10,2013-09-01 02:49:00,
2013-08-31 23:04:00,73.2,71.0,29.90,North,352,0.0,0.0,93,0.00,,,0.00,weatherlink.com 1.10,2013-09-01 03:04:00,
2013-08-31 23:19:00,73.3,71.0,29.90,North,350,0.0,0.0,93,0.00,,,0.00,weatherlink.com 1.10,2013-09-01 03:19:00,
2013-08-31 23:34:00,73.2,71.0,29.89,North,350,0.0,0.0,93,0.00,,,0.00,weatherlink.com 1.10,2013-09-01 03:34:00,
2013-08-31 23:49:00,72.7,71.0,29.89,North,349,0.0,0.0,94,0.00,,,0.00,weatherlink.com 1.10,2013-09-01 03:49:00,